Time,TemperatureF,DewpointF,PressureIn,WindDirection,WindDirectionDegrees,WindSpeedMPH,WindSpeedGustMPH,Humidity,HourlyPrecipIn,Conditions,Clouds,dailyrainin,SoftwareType,DateUTC
2013-05-23 00:10:00,72.9,72.6,29.87,NNE,22,0.0,-999.0,99,-99.99,,,0.00,Acu-Link.com,2013-05-23 05:10:00,
2013-05-23 00:25:00,72.5,72.2,29.88,North,0,0.0,-999.0,99,-99.99,,,0.00,Acu-Link.com,2013-05-23 05:25:00,
2013-05-23 00:41:00,72.1,71.8,29.88,SSW,202,0.0,-999.0,99,-99.99,,,0.00,Acu-Link.com,2013-05-23 05:41:00,
2013-05-23 00:56:00,71.8,71.5,29.89,SW,225,0.0,-999.0,99,-99.99,,,0.00,Acu-Link.com,2013-05-23 05:56:00,
2013-05-23 01:11:00,71.6,71.3,29.88,SW,225,0.0,-999.0,99,-99.99,,,0.00,Acu-Link.com,2013-05-23 06:11:00,
2013-05-23 01:26:00,72.5,72.2,29.88,ESE,112,0.0,-999.0,99,-99.99,,,0.00,Acu-Link.com,2013-05-23 06:26:00,
2013-05-23 01:42:00,72.5,72.2,29.87,SSE,157,0.0,-999.0,99,-99.99,,,0.00,Acu-Link.com,2013-05-23 06:42:00,
2013-05-23 01:57:00,72.5,72.2,29.87,ESE,112,0.0,-999.0,99,-99.99,,,0.00,Acu-Link.com,2013-05-23 06:57:00,
2013-05-23 02:12:00,72.5,72.2,29.88,ESE,112,0.0,-999.0,99,-99.99,,,0.00,Acu-Link.com,2013-05-23 07:12:00,
2013-05-23 02:28:00,72.1,71.8,29.87,ESE,112,0.0,-999.0,99,-99.99,,,0.00,Acu-Link.com,2013-05-23 07:28:00,
2013-05-23 02:43:00,71.4,71.1,29.87,NE,45,0.0,-999.0,99,-99.99,,,0.00,Acu-Link.com,2013-05-23 07:43:00,
2013-05-23 02:58:00,71.4,71.1,29.87,ENE,67,0.0,-999.0,99,-99.99,,,0.00,Acu-Link.com,2013-05-23 07:58:00,
2013-05-23 03:13:00,71.2,70.9,29.87,ENE,67,0.0,-999.0,99,-99.99,,,0.00,Acu-Link.com,2013-05-23 08:13:00,
2013-05-23 03:29:00,71.1,70.8,29.87,NNE,22,0.0,-999.0,99,-99.99,,,0.00,Acu-Link.com,2013-05-23 08:29:00,
2013-05-23 03:44:00,70.9,70.6,29.87,NNE,22,0.0,-999.0,99,-99.99,,,0.00,Acu-Link.com,2013-05-23 08:44:00,
2013-05-23 03:59:00,70.7,70.4,29.88,NNE,22,0.0,-999.0,99,-99.99,,,0.00,Acu-Link.com,2013-05-23 08:59:00,
2013-05-23 04:14:00,71.6,71.3,29.88,SE,135,0.0,-999.0,99,-99.99,,,0.00,Acu-Link.com,2013-05-23 09:14:00,
2013-05-23 04:29:00,72.3,72.0,29.88,SE,135,1.1,-999.0,99,-99.99,,,0.00,Acu-Link.com,2013-05-23 09:29:00,
2013-05-23 04:44:00,71.8,71.5,29.88,South,180,0.0,-999.0,99,-99.99,,,0.00,Acu-Link.com,2013-05-23 09:44:00,
2013-05-23 04:59:00,71.8,71.5,29.89,SW,225,0.0,-999.0,99,-99.99,,,0.00,Acu-Link.com,2013-05-23 09:59:00,
2013-05-23 05:14:00,71.4,71.1,29.89,SSW,202,0.0,-999.0,99,-99.99,,,0.00,Acu-Link.com,2013-05-23 10:14:00,
2013-05-23 05:29:00,71.1,70.8,29.89,SSE,157,0.0,-999.0,99,-99.99,,,0.00,Acu-Link.com,2013-05-23 10:29:00,
2013-05-23 05:45:00,70.9,70.6,29.89,SSE,157,0.0,-999.0,99,-99.99,,,0.00,Acu-Link.com,2013-05-23 10:45:00,
2013-05-23 06:00:00,70.5,70.2,29.90,NE,45,0.0,-999.0,99,-99.99,,,0.00,Acu-Link.com,2013-05-23 11:00:00,
2013-05-23 06:15:00,70.2,69.9,29.90,NE,45,0.0,-999.0,99,-99.99,,,0.00,Acu-Link.com,2013-05-23 11:15:00,
2013-05-23 06:30:00,70.2,69.9,29.91,SE,135,0.0,-999.0,99,-99.99,,,0.00,Acu-Link.com,2013-05-23 11:30:00,
2013-05-23 06:46:00,70.7,70.4,29.91,SSE,157,1.1,-999.0,99,-99.99,,,0.00,Acu-Link.com,2013-05-23 11:46:00,
2013-05-23 07:01:00,71.2,70.9,29.91,SSE,157,0.0,-999.0,99,-99.99,,,0.00,Acu-Link.com,2013-05-23 12:01:00,
2013-05-23 07:16:00,72.1,71.8,29.92,SSE,157,3.1,-999.0,99,-99.99,,,0.00,Acu-Link.com,2013-05-23 12:16:00,
2013-05-23 07:31:00,72.5,72.2,29.92,SE,135,2.7,-999.0,99,-99.99,,,0.00,Acu-Link.com,2013-05-23 12:31:00,
2013-05-23 07:47:00,73.0,72.7,29.92,SW,225,2.7,-999.0,99,-99.99,,,0.00,Acu-Link.com,2013-05-23 12:47:00,
2013-05-23 08:02:00,73.4,73.1,29.93,South,180,3.8,-999.0,99,-99.99,,,0.00,Acu-Link.com,2013-05-23 13:02:00,
2013-05-23 08:17:00,73.9,73.6,29.93,SSE,157,3.8,-999.0,99,-99.99,,,0.00,Acu-Link.com,2013-05-23 13:17:00,
2013-05-23 08:32:00,75.0,74.7,29.93,SSE,157,4.3,-999.0,99,-99.99,,,0.00,Acu-Link.com,2013-05-23 13:32:00,
2013-05-23 08:48:00,76.1,75.8,29.94,South,180,6.7,-999.0,99,-99.99,,,0.00,Acu-Link.com,2013-05-23 13:48:00,
2013-05-23 09:03:00,77.4,76.7,29.95,SSW,202,5.8,-999.0,98,-99.99,,,0.00,Acu-Link.com,2013-05-23 14:03:00,
2013-05-23 09:18:00,78.6,77.4,29.94,SSW,202,6.3,-999.0,96,-99.99,,,0.00,Acu-Link.com,2013-05-23 14:18:00,
2013-05-23 09:34:00,79.5,77.3,29.95,East,90,5.8,-999.0,93,-99.99,,,0.00,Acu-Link.com,2013-05-23 14:34:00,
2013-05-23 09:49:00,81.0,77.4,29.95,SE,135,4.7,-999.0,89,-99.99,,,0.00,Acu-Link.com,2013-05-23 14:49:00,
2013-05-23 10:04:00,81.9,77.2,29.94,South,180,5.1,-999.0,86,-99.99,,,0.00,Acu-Link.com,2013-05-23 15:04:00,
2013-05-23 10:20:00,83.5,77.8,29.95,SSE,157,6.3,-999.0,83,-99.99,,,0.00,Acu-Link.com,2013-05-23 15:20:00,
2013-05-23 10:35:00,83.8,77.4,29.95,SSW,202,5.1,-999.0,81,-99.99,,,0.00,Acu-Link.com,2013-05-23 15:35:00,
2013-05-23 10:50:00,84.4,77.1,29.96,SSE,157,4.7,-999.0,79,-99.99,,,0.00,Acu-Link.com,2013-05-23 15:50:00,
2013-05-23 11:05:00,85.1,77.4,29.96,SE,135,6.7,-999.0,78,-99.99,,,0.00,Acu-Link.com,2013-05-23 16:05:00,
2013-05-23 11:21:00,84.7,76.7,29.97,SSE,157,4.7,-999.0,77,-99.99,,,0.00,Acu-Link.com,2013-05-23 16:21:00,
2013-05-23 11:36:00,86.0,77.1,29.96,ESE,112,3.1,-999.0,75,-99.99,,,0.00,Acu-Link.com,2013-05-23 16:36:00,
2013-05-23 11:51:00,86.0,76.3,29.96,SSE,157,8.3,-999.0,73,-99.99,,,0.00,Acu-Link.com,2013-05-23 16:51:00,
2013-05-23 12:07:00,87.6,77.4,29.97,ESE,112,6.3,-999.0,72,-99.99,,,0.00,Acu-Link.com,2013-05-23 17:07:00,
2013-05-23 12:22:00,85.5,76.2,29.97,South,180,4.7,-999.0,74,-99.99,,,0.00,Acu-Link.com,2013-05-23 17:22:00,
2013-05-23 12:37:00,87.3,77.1,29.96,SSE,157,6.3,-999.0,72,-99.99,,,0.00,Acu-Link.com,2013-05-23 17:37:00,
2013-05-23 12:53:00,87.3,76.7,29.97,WSW,247,4.7,-999.0,71,-99.99,,,0.00,Acu-Link.com,2013-05-23 17:53:00,
2013-05-23 13:08:00,88.3,76.8,29.96,South,180,6.7,-999.0,69,-99.99,,,0.00,Acu-Link.com,2013-05-23 18:08:00,
2013-05-23 13:23:00,88.2,76.7,29.96,SW,225,4.7,-999.0,69,-99.99,,,0.00,Acu-Link.com,2013-05-23 18:23:00,
2013-05-23 13:38:00,88.3,76.4,29.96,WSW,247,6.3,-999.0,68,-99.99,,,0.00,Acu-Link.com,2013-05-23 18:38:00,
2013-05-23 13:54:00,88.9,75.1,29.95,WSW,247,5.8,-999.0,64,-99.99,,,0.00,Acu-Link.com,2013-05-23 18:54:00,
2013-05-23 14:09:00,89.6,75.8,29.95,SSW,202,7.8,-999.0,64,-99.99,,,0.00,Acu-Link.com,2013-05-23 19:09:00,
2013-05-23 14:24:00,89.2,75.9,29.95,SSW,202,6.3,-999.0,65,-99.99,,,0.00,Acu-Link.com,2013-05-23 19:24:00,
2013-05-23 14:39:00,89.4,75.1,29.94,SSW,202,5.1,-999.0,63,-99.99,,,0.00,Acu-Link.com,2013-05-23 19:39:00,
2013-05-23 14:55:00,87.4,76.4,29.93,South,180,7.4,-999.0,70,-99.99,,,0.00,Acu-Link.com,2013-05-23 19:55:00,
2013-05-23 15:10:00,88.9,77.8,29.93,SSW,202,6.3,-999.0,70,-99.99,,,0.00,Acu-Link.com,2013-05-23 20:10:00,
2013-05-23 15:25:00,88.0,77.8,29.93,SE,135,3.1,-999.0,72,-99.99,,,0.00,Acu-Link.com,2013-05-23 20:25:00,
2013-05-23 15:41:00,88.0,76.1,29.93,South,180,7.4,-999.0,68,-99.99,,,0.00,Acu-Link.com,2013-05-23 20:41:00,
2013-05-23 15:56:00,89.6,76.2,29.93,WSW,247,5.1,-999.0,65,-99.99,,,0.00,Acu-Link.com,2013-05-23 20:56:00,
2013-05-23 16:11:00,89.2,77.7,29.93,SSW,202,4.7,-999.0,69,-99.99,,,0.00,Acu-Link.com,2013-05-23 21:11:00,
2013-05-23 16:26:00,88.7,76.3,29.90,SSW,202,8.9,-999.0,67,-99.99,,,0.00,Acu-Link.com,2013-05-23 21:26:00,
2013-05-23 16:41:00,89.6,75.8,29.91,WSW,247,7.4,-999.0,64,-99.99,,,0.00,Acu-Link.com,2013-05-23 21:41:00,
2013-05-23 16:57:00,89.4,77.0,29.90,SW,225,4.7,-999.0,67,-99.99,,,0.00,Acu-Link.com,2013-05-23 21:57:00,
2013-05-23 17:12:00,86.9,76.3,29.89,SSW,202,5.8,-999.0,71,-99.99,,,0.00,Acu-Link.com,2013-05-23 22:12:00,
2013-05-23 17:27:00,87.3,76.3,29.91,SW,225,4.7,-999.0,70,-99.99,,,0.00,Acu-Link.com,2013-05-23 22:27:00,
2013-05-23 17:43:00,85.8,75.3,29.90,South,180,6.3,-999.0,71,-99.99,,,0.00,Acu-Link.com,2013-05-23 22:43:00,
2013-05-23 17:58:00,84.0,75.6,29.90,SW,225,3.1,-999.0,76,-99.99,,,0.00,Acu-Link.com,2013-05-23 22:58:00,
2013-05-23 18:13:00,83.5,75.9,29.90,South,180,4.3,-999.0,78,-99.99,,,0.00,Acu-Link.com,2013-05-23 23:13:00,
2013-05-23 18:28:00,83.1,75.9,29.91,SSW,202,2.2,-999.0,79,-99.99,,,0.00,Acu-Link.com,2013-05-23 23:28:00,
2013-05-23 18:44:00,83.1,76.3,29.92,WSW,247,1.6,-999.0,80,-99.99,,,0.00,Acu-Link.com,2013-05-23 23:44:00,
2013-05-23 18:59:00,82.8,76.3,29.92,East,90,2.2,-999.0,81,-99.99,,,0.00,Acu-Link.com,2013-05-23 23:59:00,
2013-05-23 19:14:00,81.0,73.1,29.90,NE,45,2.2,-999.0,77,-99.99,,,0.00,Acu-Link.com,2013-05-24 00:14:00,
2013-05-23 19:29:00,78.4,70.6,29.92,NNW,337,6.3,-999.0,77,-99.99,,,0.00,Acu-Link.com,2013-05-24 00:29:00,
2013-05-23 19:45:00,78.3,70.8,29.92,ESE,112,1.6,-999.0,78,-99.99,,,0.00,Acu-Link.com,2013-05-24 00:45:00,
2013-05-23 20:00:00,77.9,71.2,29.93,ESE,112,4.3,-999.0,80,-99.99,,,0.00,Acu-Link.com,2013-05-24 01:00:00,
2013-05-23 20:15:00,73.9,67.7,29.95,WSW,247,4.3,-999.0,81,-99.99,,,0.00,Acu-Link.com,2013-05-24 01:15:00,
2013-05-23 20:30:00,72.0,68.5,29.97,SSE,157,7.4,-999.0,89,-99.99,,,0.00,Acu-Link.com,2013-05-24 01:30:00,
2013-05-23 20:46:00,71.1,68.6,29.97,SSE,157,6.7,-999.0,92,-99.99,,,0.00,Acu-Link.com,2013-05-24 01:46:00,
2013-05-23 21:01:00,70.7,68.3,29.96,ESE,112,5.8,-999.0,92,-99.99,,,0.00,Acu-Link.com,2013-05-24 02:01:00,
2013-05-23 21:16:00,70.7,68.6,29.97,South,180,1.6,-999.0,93,-99.99,,,0.00,Acu-Link.com,2013-05-24 02:16:00,
2013-05-23 21:32:00,70.3,68.5,29.96,North,0,2.2,-999.0,94,-99.99,,,0.00,Acu-Link.com,2013-05-24 02:32:00,
2013-05-23 21:47:00,69.8,69.2,29.96,West,270,3.8,-999.0,98,-99.99,,,0.00,Acu-Link.com,2013-05-24 02:47:00,
2013-05-23 22:02:00,69.6,69.0,29.97,NW,315,3.1,-999.0,98,-99.99,,,0.00,Acu-Link.com,2013-05-24 03:02:00,
2013-05-23 22:17:00,69.4,68.8,29.97,SSW,202,3.8,-999.0,98,-99.99,,,0.00,Acu-Link.com,2013-05-24 03:17:00,
2013-05-23 22:33:00,69.4,68.8,29.97,NNE,22,2.7,-999.0,98,-99.99,,,0.00,Acu-Link.com,2013-05-24 03:33:00,
2013-05-23 22:48:00,69.4,69.1,29.98,West,270,3.8,-999.0,99,-99.99,,,0.00,Acu-Link.com,2013-05-24 03:48:00,
2013-05-23 23:03:00,69.6,69.3,29.99,ESE,112,2.2,-999.0,99,-99.99,,,0.00,Acu-Link.com,2013-05-24 04:03:00,
2013-05-23 23:18:00,69.4,69.1,29.98,South,180,1.6,-999.0,99,-99.99,,,0.00,Acu-Link.com,2013-05-24 04:18:00,
2013-05-23 23:34:00,69.3,69.0,29.99,SSW,202,0.0,-999.0,99,-99.99,,,0.00,Acu-Link.com,2013-05-24 04:34:00,
2013-05-23 23:49:00,68.9,68.6,29.99,West,270,1.6,-999.0,99,-99.99,,,0.00,Acu-Link.com,2013-05-24 04:49:00,